Погода в Рыбинске

Погода в Рыбинске : погода сейчас, прогноз погоды и архив. Всё, что Вы хотите узнать о погоде в Рыбинске!

Хотите узнать прогноз погоды в Рыбинске? Тогда Вам сюда: Погода в Рыбинске

Поиск расширенной информации на нашем сайте:

Другие новости

Новости СМИ2

Главная страница сайта

Новости сайта

03.07.2017

Напоминаем, что на нашем специализированном сайте Метеоцентр.Азия вы можете получить высокодетализированные автоматические прогнозы погоды по пунктам России, СНГ и мира в авиационном формате (включающие направление и скорость ветра, видимость, явления погоды, количество и форму облачности, нижнюю и верхнюю границу облачности).

Рекомендуем: Женский журнал http://clubkrasotki.ru

Погода в Рыбинске - сегодня

Время (UTC), дата Ветер
(°,м/с) 
Видим.   Явления Облачность Т
(°С)
Тd
(°С)
f(%) Тe
(°С)
Pmin
(гПа)
dP
(гПа)
Po
(мм)
O2
(г/м3)
Тmin Tmax R s Состояние
почвы
03 21.09.17 тихо ()   11000 м    9/9 300 м 
[Sc]
+7.8 +7.2 96 +8  1029.3  1.4  762  297  +6        влажная 
06 21.09.17 100 (В) 14000 м    8/4 300 м средняя 
[Sc|Ac trans]
+10.3 +9.4 94 +11  1029.9  0.7  763  295           
09 21.09.17 100 (В) 16000 м    6/6 600 м 
[Cu med, cong]
+14.3 +7.3 63 +14  1030.7  764  291           
12 21.09.17 080 (В) 15000 м    10/10 600 м кучево-дожд. 
[Cb calv]
+13.6 +8.3 70 +14  1031.2  0.4  764  292           
15 21.09.17 070 (В) 14000 м    8/8 300 м 
[Sc]
+12.3 +7.8 74 +13  1031.7  0.4  764  293    +16       
18 21.09.17 100 (В) 10 км    ясно 
+9.3 +6 80 +9  1033.5  1.7  765  297           
21 21.09.17 110 (В) 10 км    3/3 300 м 
[Cu hum]
+7.5 +5.8 89 +7  1035.3  1.7  767  300           
00 22.09.17 100 (В) 10 км    9/9 300 м 
[Sc]
+6.9 +5.2 89 +7  1036.5  1.1  767  301           
03 22.09.17 110 (В) 10 км    3/3 300 м 
[Sc]
+4.8 +3.5 91 +4  1037.5  0.9  768  304  +4.8        влажная 
06 22.09.17 110 (В) 20000 м    ясно 
+7.7 +4.4 80 +8  1037.7  0.3  768  300  +4.2         
09 22.09.17 110 (В) 19000 м    3/3 300 м 
[Cu hum]
+10.7 +4.3 65 +10  1037.2  -0.3  768  297           
12 22.09.17 110 (В) 20000 м    6/0 верхняя 
[Ci fib]
+12.9 +3.8 54 +13  1036.4  -0.6  768  295           
15 22.09.17 110 (В) 14000 м    3/0 верхняя 
[Ci fib]
+10.5 +4.8 68 +11  1035.9  -0.7  767  297    +12.9       
18 22.09.17 120 (ЮВ) 10 км    3/0 верхняя 
[Ci fib]
+7.3 +4.4 82 +8  1036  0.1  767  300           
21 22.09.17 140 (ЮВ) 10 км    ясно 
+5.5 +3.5 87 +6  1036.4  0.3  767  303           
00 23.09.17 140 (ЮВ) 10 км    ясно 
+4 +3.1 94 +5  1037.7  1.1  768  305           
03 23.09.17 тихо ()   12000 м    3/0 верхняя 
[Ci fib]
+2.6 +2 96 +3  1037.9  0.3  768  306  +2.6        влажная 
06 23.09.17 130 (ЮВ) 13000 м    4/0 верхняя 
[Ci fib]
+7.9 +5.2 83 +9  1038.1  0.5  769  300  +2.6         
09 23.09.17 100 (В) 17000 м    6/0 верхняя 
[Ci fib]
+13.3 +5.9 61 +14  1037.8  769  294           
12 23.09.17 090 (В) 18000 м    ясно 
+15.1 +6.6 57 +16  1036.7  -1.1  768  292           
15 23.09.17 110 (В) 14000 м    4/0 верхняя 
[Ci fib]
+12.2 +5.8 65 +13  1036.4  -0.4  768  295    +15.2       
18 23.09.17 тихо ()   10 км    ясно 
+6.3 +5.3 93 +6  1037.2  0.5  768  302           
21 23.09.17 140 (ЮВ) 10 км    ясно 
+5.5 +4.8 95 +6  1038.2  0.9  769  303           
00 24.09.17 тихо ()   10 км    ясно 
+3.9 +3.4 97 +4  1039.1  0.7  769  305           
03 24.09.17 тихо ()   5000 м  дымка  ясно 
+2.7 +2.3 97 +3  1039.5  0.5  770  307  +2.8        влажная 
Время (UTC), дата Ветер
(°,м/с) 
Видим.   Явления Облачность Т
(°С)
Тd
(°С)
f(%) Тe
(°С)
Pmin
(гПа)
dP
(гПа)
Po
(мм)
O2
(г/м3)
Тmin Tmax R s Состояние
почвы

Для получения пояснительной информации подведите курсор к названию столбца.

ПОГОДА в Рыбинске - архив

Всё, что Вы хотите узнать о погоде в Рыбинске - удобно и подробно!

Выберите нужную дату (начиная с 1 января 2015* года) и нажмите кнопку "Найти".
Будут отображены архивные сводки погоды по пункту Рыбинск, начиная с указанной даты.


Отображать данные в формате CSV (для использования в таблицах Excel)


Внимание! Наш архив погоды предназначен исключительно для личного некоммерческого использования в познавательных целях. Если Вам необходимы официальные справки о состоянии погоды (для производственных, юридических, коммерческих и т.п. целей), обращайтесь в органы Росгидромета.

*Примечание: данная дата относится к архиву по метеостанциям СССР (Россия, СНГ, Балтия).
Архив по метеостанциям Зарубежной Европы и Азии (кроме Китая) хранится 10 дней, по другим регионам земного шара (Китай, Африка, Америка, Австралия, Океания) - 1 день.

Рыбинск - район местоположения метеостанции


Название, широта, долгота, высота метеостанции:
Рыбинск 58.1°ш. 38.7°д. 105 м над ур. моря [Российская Федерация]

Дополнительная информация

В oтличие oт бoльшинства пoгoдных сайтoв мы публикуем пoдрoбную метеoинфoрмацию в детальнoм прoфессиoнальнoм фoрмате.

Характеристики температуры и влажнoсти вoздуха измеряются на высoте 2 м в тени вдали oт зданий и деревьев.
Скoрoсть ветра измеряется на высoте 10 м (на урoвне рoста челoвека скoрoсть ветра ниже в 1.5-2 раза). Если метеoстанция нахoдится в гoрoде или в лесу, тo скoрoсть ветра занижена на 2-4 м/с пo сравнению с oткрытым местoм. Скoрoсть ветра над акватoриями крупных рек и oзёр, а также на вершинах хoлмoв на 2-5 м/с выше, чем в oбычных услoвиях.
Атмoсфернoе давление в разных тoчках местнoсти мoжет значительнo oтличаться oт давления на метеoстанции, в зависимoсти oт услoвий рельефа (при пoдъёме на 10 м давление пoнижается примернo на 1 мм рт.ст.).